Location: Unspecified
(64.9000°N, 0.0000°E)
Time: 18:30:17
(UTC+00:00)

Transit 2A Rocket - Pass Details

Date: 19 June 2019
Orbit: 590 x 913 km, 66.7° (Epoch: 22 August)

Event Time Altitude Azimuth Distance (km) Brightness Sun altitude
Rises 14:22:08 0° 259° (WSW) 3,521 9.0 42.7°
Reaches altitude 10° 14:24:43 10° 260° (W) 2,557 8.5 42.5°
Maximum altitude 14:30:41 79° 348° (NNW) 871 6.0 42.0°
Drops below altitude 10° 14:36:14 10° 76° (ENE) 2,377 7.2 41.6°
Sets 14:38:33 0° 77° (ENE) 3,258 7.8 41.4°
